Weather reports worldwide

Advertisment
Fair Isle, United Kingdom (3008): temperature & dewpoint: 16.02.2020 07:00:00 - 22.02.2020 07:00:00 (GMT)Fair Isle, United Kingdom (3008): temperature -20cm & temperature -100cm: 16.02.2020 07:00:00 - 22.02.2020 07:00:00 (GMT)Fair Isle, United Kingdom (3008): wind speed & gusts: 16.02.2020 07:00:00 - 22.02.2020 07:00:00 (GMT)Fair Isle, United Kingdom (3008): wind direction: 16.02.2020 07:00:00 - 22.02.2020 07:00:00 (GMT)Fair Isle, United Kingdom (3008): reduced air pressure: 16.02.2020 07:00:00 - 22.02.2020 07:00:00 (GMT)Fair Isle, United Kingdom (3008): visibility: 16.02.2020 07:00:00 - 22.02.2020 07:00:00 (GMT)Fair Isle, United Kingdom (3008): precipitation: 16.02.2020 07:00:00 - 22.02.2020 07:00:00 (GMT)
Date & Time tt [°C] td [°C] tt -20cm [°C] tt -100cm [°C] ff [km/h] ff [kn] fx [km/h] fx [kn] dd ppp [hPa] vv [km] rr [mm]
22.02.2020 07:00:00 3,2 0,2 - - 59 32 98 53 WSW 981,2 10 -
22.02.2020 06:00:00 3,9 1,3 - - 52 28 87 47 WSW 980,5 10 0,4
22.02.2020 05:00:00 3,6 2,3 - - 44 24 72 39 SW 980,2 9 0,6
22.02.2020 04:00:00 4,4 2,8 - - 52 28 80 43 WSW 980,8 13 0,0
22.02.2020 03:00:00 2,5 2,1 - - 57 31 94 51 WSW 981,6 5 0,8
22.02.2020 02:00:00 3,5 2,4 - - 41 22 68 37 SW 981,4 13 1,4
22.02.2020 01:00:00 5,2 2,6 - - 44 24 61 33 SW 981,6 16 0,2
22.02.2020 00:00:00 5,0 3,0 - - 39 21 55 30 SSW 982,4 12 0,0
21.02.2020 23:00:00 4,0 2,8 - - 37 20 68 37 SW 984,1 12 1,0
21.02.2020 22:00:00 4,1 2,7 - - 48 26 78 42 WSW 985,7 5 1,0
21.02.2020 21:00:00 5,6 3,3 - - 57 31 96 52 SW 986,0 10 0,2
21.02.2020 20:00:00 7,3 3,2 - - 54 29 80 43 WSW 986,1 8 0,0
21.02.2020 19:00:00 6,9 4,4 - - 61 33 81 44 SW 986,8 9 0,4
21.02.2020 18:00:00 6,8 4,1 - - 54 29 85 46 WSW 986,9 7 0,0
21.02.2020 17:00:00 7,6 4,5 - - 50 27 98 53 SW 986,9 6 0,0
21.02.2020 16:00:00 7,5 3,6 - - 65 35 102 55 WSW 986,8 8 0,4
21.02.2020 15:00:00 7,8 4,1 - - 67 36 87 47 WSW 986,6 9 0,0
21.02.2020 14:00:00 7,7 4,7 - - 52 28 96 52 WSW 986,2 7 0,0
21.02.2020 13:00:00 8,1 4,9 - - 59 32 102 55 WSW 985,8 8 0,0
21.02.2020 12:00:00 8,3 4,1 - - 63 34 98 53 WSW 985,4 8 0,0
21.02.2020 11:00:00 8,6 6,4 - - 63 34 113 61 WSW 984,5 7 0,4
21.02.2020 10:00:00 7,1 6,0 - - 52 28 81 44 SSW 984,2 5 0,2
21.02.2020 09:00:00 7,1 5,2 5,4 5,9 59 32 87 47 SSW 984,4 5 0,0
21.02.2020 08:00:00 6,8 4,6 - - 61 33 91 49 SSW 985,0 7 0,0
21.02.2020 07:00:00 6,6 4,4 - - 65 35 91 49 SSW 986,8 8 0,0
21.02.2020 06:00:00 6,4 3,9 - - 63 34 81 44 SSW 987,8 9 0,0
21.02.2020 05:00:00 6,2 3,5 - - 55 30 72 39 SSW 990,2 10 0,0
21.02.2020 04:00:00 5,9 3,5 - - 46 25 78 42 SW 991,7 7 0,0
21.02.2020 03:00:00 6,1 3,3 - - 55 30 89 48 SW 992,5 8 0,0
21.02.2020 02:00:00 6,1 3,6 - - 50 27 87 47 WSW 993,1 8 0,2
21.02.2020 01:00:00 5,8 1,9 - - 48 26 72 39 WSW 992,9 8 0,0
21.02.2020 00:00:00 4,8 2,5 - - 46 25 81 44 WSW 992,2 8 0,4
20.02.2020 23:00:00 5,4 2,2 - - 46 25 76 41 WSW 991,1 6 0,2
20.02.2020 22:00:00 5,0 1,7 - - 52 28 74 40 WSW 990,2 9 0,0
20.02.2020 21:00:00 5,1 2,2 - - 46 25 72 39 WSW 989,3 11 0,0
20.02.2020 20:00:00 4,3 2,0 - - 48 26 70 38 WSW 988,5 13 0,6
20.02.2020 19:00:00 2,4 0,6 - - 55 30 89 48 WSW 988,0 2,8 0,4
20.02.2020 18:00:00 2,9 1,0 - - 63 34 93 50 WSW 987,1 9 0,0
20.02.2020 17:00:00 4,1 0,3 - - 63 34 81 44 SW 986,6 15 0,0
20.02.2020 16:00:00 4,1 1,2 - - 50 27 76 41 SW 986,5 12 0,0
20.02.2020 15:00:00 4,8 0,2 - - 59 32 78 42 WSW 986,4 17 0,0
20.02.2020 14:00:00 2,1 -0,8 - - 57 31 81 44 WSW 987,3 5 0,2
20.02.2020 13:00:00 5,2 -0,4 - - 44 24 72 39 WSW 987,1 14 0,0
20.02.2020 12:00:00 4,9 0,9 - - 39 21 59 32 WSW 987,0 24 0,0
20.02.2020 11:00:00 4,9 0,2 - - 37 20 61 33 WSW 987,1 9 0,0
20.02.2020 10:00:00 5,1 1,3 - - 42 23 54 29 SW 987,4 15 0,0
20.02.2020 09:00:00 4,0 1,6 5,7 5,9 34 18 57 31 SW 988,0 15 0,2
20.02.2020 08:00:00 4,5 1,1 - - 39 21 55 30 WSW 988,7 10 0,0
20.02.2020 07:00:00 5,1 2,2 - - 34 18 48 26 SW 988,7 17 0,2
20.02.2020 06:00:00 5,5 3,4 - - 46 25 61 33 SW 988,9 18 0,0
20.02.2020 05:00:00 5,7 3,7 - - 52 28 65 35 WSW 989,3 21 0,6
20.02.2020 04:00:00 7,2 4,0 - - 35 19 50 27 SSW 989,6 11 0,0
20.02.2020 03:00:00 6,8 5,2 - - 34 18 - - SSW 989,9 9 0,0
20.02.2020 02:00:00 7,1 5,7 - - 35 19 48 26 SW 990,3 8 0,0
20.02.2020 01:00:00 7,1 6,0 - - 35 19 46 25 SW 990,6 9 0,0
20.02.2020 00:00:00 6,7 6,1 - - 35 19 59 32 SSW 990,2 10 0,0
19.02.2020 23:00:00 6,7 5,9 - - 44 24 70 38 SSW 990,5 7 0,0
19.02.2020 22:00:00 6,4 5,6 - - 54 29 76 41 S 990,7 9 0,2
19.02.2020 21:00:00 5,8 5,2 - - 52 28 76 41 S 991,1 6 1,8
19.02.2020 20:00:00 5,5 4,6 - - 54 29 74 40 S 992,5 4,8 0,6
19.02.2020 19:00:00 5,9 3,2 - - 55 30 74 40 SSE 993,9 12 0,0
19.02.2020 18:00:00 5,8 1,7 - - 48 26 63 34 SSE 995,5 19 0,0
19.02.2020 17:00:00 5,4 1,6 - - 35 19 50 27 SSE 997,3 19 0,0
19.02.2020 16:00:00 5,4 2,0 - - 29 16 - - S 999,0 30 0,0
19.02.2020 15:00:00 6,0 2,4 - - 22 12 - - SSW 1000,1 10 0,0
19.02.2020 14:00:00 6,8 3,1 - - 29 16 - - SW 1001,2 12 0,0
19.02.2020 13:00:00 6,8 4,4 - - 16 9 - - WSW 1001,7 19 0,0
19.02.2020 12:00:00 7,0 3,6 - - 21 11 - - W 1001,8 15 0,0
19.02.2020 11:00:00 6,8 3,6 - - 26 14 - - W 1001,6 23 0,0
19.02.2020 10:00:00 6,5 4,1 - - 29 16 - - W 1001,0 16 0,0
19.02.2020 09:00:00 6,0 4,4 5,4 5,9 28 15 54 29 WNW 1000,9 15 0,2
19.02.2020 08:00:00 6,3 4,5 - - 31 17 46 25 WNW 999,5 11 1,6
19.02.2020 07:00:00 5,8 4,0 - - 29 16 55 30 WNW 998,3 8 0,2
19.02.2020 06:00:00 6,0 3,6 - - 35 19 55 30 W 997,4 14 0,2
19.02.2020 05:00:00 5,5 3,3 - - 28 15 46 25 W 996,8 7 -
19.02.2020 04:00:00 6,0 3,7 - - 24 13 - - W 996,0 15 0,0
19.02.2020 03:00:00 6,2 3,7 - - 24 13 48 26 W 995,0 14 0,0
19.02.2020 02:00:00 6,0 4,2 - - 29 16 - - WSW 994,7 10 0,0
19.02.2020 01:00:00 5,8 4,2 - - 34 18 63 34 WSW 994,6 10 2,4
19.02.2020 00:00:00 5,3 3,6 - - 39 21 55 30 WSW 994,3 4,8 0,4
18.02.2020 23:00:00 5,5 4,4 - - 39 21 55 30 SW 993,8 8 0,0
18.02.2020 22:00:00 4,5 2,5 - - 37 20 50 27 SW 994,0 12 0,0
18.02.2020 21:00:00 3,8 2,4 - - 31 17 61 33 SW 994,2 16 0,0
18.02.2020 20:00:00 3,7 1,9 - - 35 19 63 34 WSW 994,4 24 0,6
18.02.2020 19:00:00 4,7 2,0 - - 52 28 65 35 SW 994,1 15 0,0
18.02.2020 18:00:00 2,7 1,2 - - 29 16 67 36 WSW 993,9 14 1,6
18.02.2020 17:00:00 4,6 1,5 - - 44 24 59 32 WSW 993,2 17 0,0
18.02.2020 16:00:00 4,3 1,9 - - 46 25 70 38 WSW 993,2 18 0,0
18.02.2020 15:00:00 4,7 2,3 - - 42 23 55 30 SW 993,4 15 0,0
18.02.2020 14:00:00 3,4 0,8 - - 50 27 68 37 WSW 993,7 5 0,2
18.02.2020 13:00:00 4,4 1,7 - - 48 26 65 35 SW 993,5 26 0,0
18.02.2020 12:00:00 4,0 2,3 - - 48 26 68 37 SW 993,5 20 0,0
18.02.2020 11:00:00 5,0 1,8 - - 48 26 72 39 WSW 993,1 18 0,0
18.02.2020 10:00:00 4,2 1,2 - - 55 30 80 43 WSW 992,8 27 0,2
18.02.2020 09:00:00 5,2 2,5 5,7 5,9 55 30 72 39 SW 992,2 13 0,0
18.02.2020 08:00:00 4,7 2,6 - - 52 28 80 43 WSW 992,0 10 0,2
18.02.2020 07:00:00 4,8 1,5 - - 52 28 76 41 WSW 991,7 11 0,0
18.02.2020 06:00:00 5,5 2,0 - - 52 28 76 41 WSW 991,1 11 0,8
18.02.2020 05:00:00 5,0 2,4 - - 46 25 74 40 WSW 991,2 11 0,0
18.02.2020 04:00:00 5,1 1,0 - - 48 26 74 40 WSW 990,8 16 0,0
18.02.2020 03:00:00 5,0 1,8 - - 50 27 83 45 WSW 990,5 13 0,0
18.02.2020 02:00:00 5,5 2,1 - - 46 25 76 41 WSW 990,3 11 0,0
18.02.2020 01:00:00 6,4 2,6 - - 50 27 78 42 W 989,7 10 0,0
18.02.2020 00:00:00 6,6 4,3 - - 42 23 94 51 WSW 988,8 8 0,6
17.02.2020 23:00:00 6,4 4,0 - - 50 27 80 43 WSW 988,1 8 0,0
17.02.2020 22:00:00 6,2 3,9 - - 52 28 76 41 W 986,9 10 0,0
17.02.2020 21:00:00 6,4 3,8 - - 50 27 81 44 WSW 985,9 7 0,0
17.02.2020 20:00:00 7,0 4,5 - - 42 23 70 38 WSW 985,6 10 0,0
17.02.2020 19:00:00 6,5 4,8 - - 52 28 70 38 WSW 984,9 9 0,6
17.02.2020 18:00:00 6,3 4,3 - - 52 28 68 37 WSW 984,0 8 0,2
17.02.2020 17:00:00 6,2 3,2 - - 50 27 80 43 WSW 983,3 11 0,0
17.02.2020 16:00:00 7,0 3,9 - - 55 30 76 41 WSW 982,1 8 0,0
17.02.2020 15:00:00 7,6 4,8 - - 48 26 74 40 WSW 981,3 8 0,0
17.02.2020 14:00:00 7,3 4,7 - - 46 25 72 39 WSW 980,1 9 0,0
17.02.2020 13:00:00 7,3 4,5 - - 48 26 76 41 WSW 978,9 8 0,0
17.02.2020 12:00:00 7,7 4,9 - - 55 30 81 44 WSW 977,3 8 0,0
17.02.2020 11:00:00 7,4 3,9 - - 50 27 89 48 W 975,7 8 0,0
17.02.2020 10:00:00 6,2 3,8 - - 57 31 109 59 W 973,3 7 0,2
17.02.2020 09:00:00 7,0 4,3 5,4 5,9 72 39 113 61 W 970,1 5 0,8
17.02.2020 08:00:00 6,2 5,6 - - 72 39 115 62 W 967,0 2,6 1,2
17.02.2020 07:00:00 7,0 5,4 - - 81 44 115 62 WSW 963,2 2,7 0,2
17.02.2020 06:00:00 7,5 5,6 - - 85 46 115 62 WSW 960,4 5 0,0
17.02.2020 05:00:00 6,7 5,0 - - 74 40 109 59 SW 959,9 4,4 0,0
17.02.2020 04:00:00 7,4 4,2 - - 70 38 96 52 SW 960,2 6 0,2
17.02.2020 03:00:00 6,8 4,4 - - 63 34 83 45 SSW 960,4 10 0,0
17.02.2020 02:00:00 6,1 3,6 - - 63 34 85 46 SSW 961,2 11 0,0
17.02.2020 01:00:00 6,2 3,8 - - 59 32 78 42 SSW 961,0 11 0,0
17.02.2020 00:00:00 6,1 3,9 - - 59 32 85 46 SSW 961,1 11 0,0
16.02.2020 23:00:00 5,9 3,7 - - 63 34 85 46 SSW 960,7 9 0,0
16.02.2020 22:00:00 5,7 3,9 - - 57 31 87 47 SSW 960,5 9 0,0
16.02.2020 21:00:00 5,4 4,1 - - 57 31 89 48 SSW 960,6 11 0,4
16.02.2020 20:00:00 5,7 3,2 - - 57 31 85 46 SSW 960,5 11 0,0
16.02.2020 19:00:00 5,6 2,7 - - 59 32 87 47 SSW 960,4 11 0,0
16.02.2020 18:00:00 6,0 2,3 - - 65 35 94 51 SSW 960,8 10 0,0
16.02.2020 17:00:00 6,3 1,8 - - 65 35 91 49 SSW 961,2 9 0,0
16.02.2020 16:00:00 6,3 2,1 - - 61 33 87 47 SSW 961,8 9 0,0
16.02.2020 15:00:00 6,2 2,9 - - 59 32 83 45 SSW 962,5 9 0,0
16.02.2020 14:00:00 5,7 2,7 - - 65 35 87 47 SSW 962,6 11 0,0
16.02.2020 13:00:00 5,2 2,9 - - 57 31 85 46 SSW 962,8 8 0,0
16.02.2020 12:00:00 5,0 1,7 - - 57 31 81 44 SSW 963,3 8 0,0
16.02.2020 11:00:00 4,8 1,4 - - 57 31 81 44 SSW 962,8 15 0,0
16.02.2020 10:00:00 4,7 1,4 - - 57 31 81 44 SW 962,3 15 0,0
16.02.2020 09:00:00 4,3 1,1 5,4 5,9 61 33 85 46 SW 961,1 12 0,0
16.02.2020 08:00:00 5,0 1,2 - - 59 32 89 48 SW 960,3 15 0,0
16.02.2020 07:00:00 5,7 3,0 - - 67 36 93 50 SSW 959,3 12 0,2

tt = temperature
td = dewpoint
tt -20cm = temperature -20cm
tt -100cm = temperature -100cm
ff = wind speed
fx = gusts
dd = wind direction
ppp = reduced air pressure
vv = visibility
rr = precipitation

Next stations